Wind_Speed
46 47 48 49 49 50 50 51 51 51 52 52 52 52 52 52 52 53 53 52 52 51 50 50 50 50 50 50 50 50 50 51 51 51 51 51 51 51
47 48 49 50 50 51 51 51 52 52 52 52 53 53 53 53 53 53 53 53 52 51 51 50 50 50 51 51 51 51 51 52 52 52 51 51 51 52
50 49 49 49 50 50 51 52 52 52 53 53 53 53 54 54 54 53 53 53 52 51 51 50 51 51 51 51 51 52 52 53 53 52 52 52 52 52
51 51 51 50 50 51 51 51 51 52 52 53 53 54 55 54 54 53 52 52 51 52 51 50 51 51 51 52 52 52 52 52 52 52 51 52 52 52
51 52 51 51 51 51 51 52 52 53 53 53 54 54 55 54 53 52 52 51 51 51 51 51 51 51 52 52 53 52 52 51 51 51 51 52 52 52
51 51 52 52 51 52 52 53 53 53 54 53 54 53 53 52 52 51 51 51 51 51 52 52 52 52 52 52 52 51 51 51 51 51 52 52 52 53
50 50 51 51 52 52 52 52 53 53 53 53 53 52 52 51 51 50 50 50 51 50 51 51 51 51 51 51 51 51 51 51 52 52 52 52 52 53
48 49 49 50 51 51 51 52 52 52 52 52 52 52 51 51 50 50 50 49 49 50 50 50 51 50 50 50 50 51 51 52 52 52 52 52 52 52
47 48 48 49 49 50 50 50 50 51 51 51 51 51 51 50 50 49 49 49 49 49 49 49 49 49 49 49 50 50 51 52 52 52 52 52 52 51
48 48 48 48 49 49 49 49 50 50 50 50 50 50 50 49 49 48 48 48 48 49 48 48 48 48 49 49 49 49 50 50 50 50 51 51 51 51
47 48 48 49 49 49 48 49 49 49 49 49 49 48 48 48 48 48 47 47 47 48 47 47 47 48 48 49 49 49 48 48 49 49 49 49 49 49
48 49 49 50 49 49 48 48 48 48 48 47 47 47 47 46 46 46 46 46 46 46 47 46 47 47 46 46 47 47 47 47 46 46 47 47 47 46
49 49 49 49 49 48 48 47 47 47 46 46 46 46 46 45 45 45 45 45 45 45 46 45 45 46 45 45 45 46 45 45 44 44 44 44 44 44
49 49 49 49 48 48 47 46 46 46 46 46 45 45 45 44 44 44 44 45 45 45 45 44 44 44 44 43 43 43 43 43 43 43 42 42 43 43
49 48 48 48 47 47 46 46 46 46 45 45 44 44 44 43 43 43 43 43 44 44 43 43 43 42 42 42 42 42 41 42 42 42 41 41 41 41
47 46 46 46 46 45 45 45 45 44 44 43 43 42 42 42 42 42 42 42 42 42 42 42 41 41 41 41 41 41 41 41 41 41 40 40 40 39
46 45 45 45 44 44 44 44 43 42 42 41 41 40 40 40 40 40 40 40 39 39 40 40 40 40 39 40 39 40 40 40 39 39 38 38 37 37
45 44 43 43 43 42 42 41 41 40 40 40 39 39 39 39 39 38 38 38 38 38 39 38 38 37 37 37 38 38 37 37 37 36 36 36 35 35
43 42 42 41 41 40 40 39 38 38 38 38 38 37 37 37 37 37 37 37 37 37 37 37 37 36 36 36 35 36 35 34 34 34 34 34 33 33
42 41 41 40 39 39 38 37 36 36 36 36 35 36 36 36 36 36 36 37 36 36 36 35 35 35 34 33 33 33 33 33 33 32 32 32 31 31
41 40 39 38 37 37 36 36 35 34 34 34 34 34 34 35 35 35 35 35 34 34 33 33 33 33 32 31 30 30 31 32 31 31 31 30 29 28
39 38 38 36 36 35 35 35 34 34 34 34 33 33 33 33 33 32 32 32 31 31 31 31 31 31 30 29 29 29 29 29 29 28 29 29 27 26
37 36 35 35 34 34 34 34 34 33 33 32 32 32 31 31 31 30 30 30 30 30 30 29 29 28 28 27 28 27 27 26 26 26 26 27 26 25
Wind_Direction
278 279 280 280 280 280 281 281 281 281 281 282 281 282 282 283 283 283 284 283 282 281 280 279 279 279 279 279 279 278 278 278 278 279 278 276 274 273
280 280 281 281 281 281 281 282 282 283 282 282 281 282 282 283 283 284 284 283 281 280 280 279 279 278 279 279 279 278 278 279 279 279 279 277 275 274
281 281 282 281 281 282 282 283 283 283 282 283 283 282 282 283 283 284 283 282 281 281 280 280 279 279 279 279 279 279 279 279 279 279 278 277 276 275
282 282 283 283 283 283 283 283 283 284 284 284 284 284 284 284 283 283 282 281 280 280 280 280 280 279 279 280 280 280 279 279 278 279 279 278 277 275
283 284 284 284 283 284 283 283 284 284 284 284 285 285 284 283 283 282 282 281 281 281 281 281 281 280 280 280 280 280 279 279 279 279 279 278 277 276
284 285 285 284 284 284 284 284 284 284 284 285 285 285 284 284 283 283 282 282 282 281 282 282 282 281 281 281 280 280 280 279 279 279 279 279 278 276
285 285 285 285 285 285 285 285 285 285 285 285 285 284 284 284 283 283 282 282 283 283 282 282 282 283 283 282 281 280 280 279 279 279 279 279 278 277
286 286 286 286 286 286 286 286 286 286 286 286 285 285 284 284 283 283 282 282 283 282 283 283 284 284 284 283 282 281 280 280 280 280 279 279 278 277
287 287 287 287 287 287 287 287 286 286 287 286 285 285 284 284 284 283 283 283 283 284 284 284 284 284 284 283 283 282 281 281 281 281 280 279 278 277
287 287 287 287 287 288 287 287 286 286 286 285 285 284 283 283 284 284 283 283 284 284 284 284 284 284 284 284 284 283 283 283 282 282 280 279 279 278
286 286 287 287 287 288 287 287 287 286 286 285 284 284 283 283 283 283 283 284 285 285 285 285 285 285 285 285 284 284 284 283 283 283 282 281 280 279
286 286 287 287 286 286 286 286 286 286 285 285 284 283 283 283 284 284 284 284 285 285 285 286 286 286 285 285 285 285 284 284 284 284 283 282 281 279
287 286 286 286 287 286 286 286 286 285 285 285 284 284 284 283 283 284 284 285 286 286 286 287 287 287 287 286 286 286 285 285 285 285 285 284 283 281
287 287 287 286 286 286 286 286 285 285 284 284 284 284 284 283 283 284 285 286 287 288 288 288 288 288 288 288 287 287 287 286 286 286 286 284 283 282
288 288 287 287 287 287 286 285 284 284 284 283 283 284 284 284 284 285 286 287 288 289 289 289 289 289 288 289 289 288 287 287 288 288 287 286 284 282
288 287 287 287 287 287 286 285 284 283 283 283 283 283 283 284 285 286 287 288 288 289 290 290 289 289 289 290 290 289 288 288 287 288 288 286 284 282
287 287 287 288 287 287 286 286 285 284 284 284 283 283 283 284 286 287 288 289 289 290 291 291 290 290 291 292 291 290 290 289 289 288 288 286 284 281
286 286 287 287 287 287 287 286 285 284 284 284 284 284 284 285 286 287 288 289 290 290 291 291 291 291 292 292 292 292 291 290 289 289 288 286 283 281
285 285 286 286 286 286 286 285 284 284 284 284 284 284 284 284 285 286 287 289 290 291 292 292 292 292 292 292 292 292 292 291 290 290 290 289 286 283
284 284 285 285 286 285 284 284 284 284 285 285 284 283 283 284 285 285 287 288 290 291 292 293 294 294 294 294 293 293 292 293 293 293 292 292 289 286
284 284 284 285 285 284 283 283 284 284 284 284 284 283 284 284 285 286 287 289 290 291 293 293 295 296 296 296 295 295 295 295 296 296 295 295 292 289
283 284 284 284 284 284 283 282 282 282 282 283 283 283 284 285 286 287 288 290 291 292 293 294 296 296 296 296 296 296 297 297 298 298 299 299 297 294
282 283 283 283 284 284 283 281 280 280 280 282 283 284 285 286 287 287 288 290 291 293 295 296 297 297 296 296 297 297 298 297 298 299 301 301 301 299
Height
5709 5707 5705 5702 5700 5698 5695 5693 5691 5689 5687 5684 5681 5678 5675 5672 5670 5667 5665 5662 5659 5657 5655 5653 5651 5649 5647 5644 5642 5640 5639 5637 5635 5634 5632 5631 5630 5629
5697 5695 5693 5690 5688 5685 5683 5680 5677 5675 5673 5670 5667 5664 5662 5659 5656 5653 5650 5648 5645 5643 5640 5638 5636 5634 5632 5630 5628 5626 5624 5622 5620 5619 5617 5615 5614 5614
5685 5683 5680 5677 5675 5672 5670 5667 5664 5661 5659 5656 5653 5650 5647 5645 5642 5639 5636 5633 5631 5628 5626 5624 5622 5620 5618 5615 5613 5611 5609 5607 5605 5603 5601 5600 5599 5598
5672 5670 5667 5664 5662 5659 5656 5653 5650 5648 5645 5642 5639 5636 5633 5630 5627 5624 5621 5618 5616 5614 5612 5610 5607 5605 5603 5601 5598 5596 5594 5592 5590 5588 5586 5585 5583 5582
5659 5656 5653 5651 5648 5645 5642 5639 5636 5633 5630 5628 5625 5621 5618 5615 5612 5609 5607 5604 5602 5600 5597 5595 5593 5590 5588 5585 5583 5581 5579 5577 5575 5573 5571 5569 5567 5566
5645 5643 5640 5637 5634 5631 5628 5625 5622 5619 5616 5613 5610 5607 5604 5600 5598 5595 5592 5590 5587 5585 5582 5580 5577 5575 5573 5570 5568 5566 5564 5561 5559 5557 5555 5553 5551 5550
5632 5629 5626 5623 5620 5617 5614 5611 5607 5604 5601 5599 5596 5593 5590 5586 5584 5581 5578 5575 5573 5570 5567 5565 5562 5560 5557 5555 5552 5550 5548 5546 5544 5542 5540 5537 5535 5533
5618 5615 5612 5609 5606 5603 5600 5597 5594 5590 5587 5584 5582 5578 5575 5573 5570 5567 5564 5562 5559 5557 5553 5550 5547 5545 5542 5540 5537 5535 5533 5530 5528 5526 5523 5521 5519 5517
5605 5602 5599 5596 5592 5589 5586 5583 5580 5577 5574 5571 5568 5565 5562 5559 5556 5553 5550 5547 5545 5542 5539 5536 5533 5530 5528 5525 5522 5519 5517 5514 5512 5510 5507 5505 5502 5500
5592 5588 5586 5582 5579 5576 5573 5569 5566 5563 5560 5557 5554 5551 5548 5545 5543 5540 5537 5534 5531 5528 5525 5523 5519 5517 5513 5510 5507 5504 5501 5499 5496 5494 5491 5489 5486 5484
5578 5575 5572 5569 5566 5562 5559 5556 5552 5549 5546 5543 5540 5537 5534 5532 5529 5527 5524 5521 5518 5515 5511 5509 5506 5503 5500 5496 5492 5489 5486 5483 5481 5478 5475 5472 5470 5468
5565 5562 5558 5555 5551 5548 5545 5542 5539 5536 5533 5530 5527 5524 5521 5519 5516 5513 5511 5508 5505 5502 5498 5495 5492 5489 5487 5482 5478 5475 5472 5469 5466 5463 5460 5457 5454 5452
5551 5548 5544 5541 5537 5534 5532 5529 5526 5522 5520 5517 5514 5511 5509 5506 5503 5500 5498 5495 5492 5489 5485 5482 5479 5475 5472 5469 5466 5461 5458 5455 5452 5449 5445 5442 5440 5437
5537 5533 5530 5527 5523 5521 5518 5515 5512 5509 5506 5504 5501 5499 5496 5493 5491 5488 5485 5482 5479 5475 5472 5469 5466 5462 5458 5455 5452 5449 5445 5442 5439 5436 5432 5429 5426 5423
5522 5519 5516 5513 5510 5507 5504 5501 5499 5496 5493 5491 5488 5486 5483 5481 5478 5476 5473 5469 5466 5463 5459 5456 5453 5449 5446 5442 5439 5436 5433 5430 5426 5423 5419 5416 5412 5410
5508 5505 5502 5499 5497 5494 5491 5488 5485 5483 5480 5478 5476 5473 5471 5469 5466 5464 5461 5458 5455 5451 5447 5444 5440 5437 5433 5430 5427 5424 5420 5417 5414 5410 5407 5403 5400 5397
5495 5492 5489 5487 5484 5481 5478 5475 5473 5470 5468 5466 5464 5462 5459 5457 5455 5452 5449 5446 5443 5440 5436 5432 5429 5425 5422 5418 5415 5411 5408 5405 5402 5399 5395 5392 5389 5386
5481 5479 5476 5474 5471 5468 5466 5463 5460 5458 5456 5454 5452 5450 5448 5446 5443 5441 5438 5435 5432 5429 5425 5421 5418 5415 5412 5408 5404 5400 5397 5394 5390 5387 5384 5381 5378 5375
5468 5466 5464 5461 5458 5456 5453 5451 5449 5447 5445 5443 5441 5439 5437 5435 5432 5430 5427 5424 5421 5418 5414 5411 5407 5404 5401 5398 5394 5389 5386 5383 5380 5377 5373 5370 5367 5365
5455 5453 5451 5448 5446 5444 5442 5440 5438 5436 5434 5432 5430 5428 5426 5424 5422 5419 5417 5414 5411 5407 5404 5400 5397 5394 5390 5387 5384 5380 5376 5372 5369 5366 5363 5360 5357 5355
5442 5440 5438 5436 5434 5432 5431 5429 5427 5425 5424 5422 5420 5418 5416 5414 5411 5409 5406 5403 5401 5398 5394 5391 5387 5384 5381 5377 5374 5371 5367 5363 5359 5356 5353 5350 5348 5345
5430 5428 5426 5424 5423 5421 5419 5418 5416 5415 5413 5412 5410 5408 5406 5404 5401 5399 5397 5394 5391 5388 5385 5382 5378 5375 5372 5369 5366 5363 5359 5356 5351 5348 5344 5341 5337 5335
5418 5416 5415 5413 5412 5410 5408 5407 5406 5404 5403 5401 5400 5398 5396 5394 5392 5390 5387 5385 5382 5379 5376 5373 5370 5367 5364 5361 5357 5354 5351 5348 5345 5342 5338 5333 5330 5327